Location: Burbank
(38.7788°N, 114.0429°W)
Time: 01:46:24
(UTC+00:00)

Tiros 1 despin weight - Pass Details

Date: 15 May 2026
Orbit: 554 x 591 km, 48.2° (Epoch: 6 June)

Event Time Altitude Azimuth Distance (km) Brightness Sun altitude
Rises 11:57:34 0° 224° (SW) 2,757 - -5.4°
Exits shadow 11:58:47 - 223° (SW) 2,273 ? -5.2°
Reaches altitude 10° 11:59:51 10° 220° (SW) 1,856 ? -5.0°
Maximum altitude 12:04:00 56° 143° (SE) 671 ? -4.3°
Drops below altitude 10° 12:08:08 10° 65° (ENE) 1,845 ? -3.6°
Sets 12:10:24 0° 61° (ENE) 2,738 ? -3.2°
